,,Stat6,,Stat2,,Stat8,,Stat9,,Stat10,,Wind1,,Wind1,
time,status,PA1M_AVG,status,PR1M_SUM,status,RH1M_AVG,status,SR1M_AVG,status,TA1M_AVG,status,W1dAve1m,status,W1sAve1m,
2009-01-07, 00:00:00,VALID,918.271,VALID,0,VALID,100,VALID,-0.0679233,VALID,19.8468,VALID,41,VALID,0,
2009-01-07, 00:01:00,VALID,918.271,VALID,0,VALID,100,VALID,-0.0849042,VALID,19.8601,VALID,41,VALID,0,
2009-01-07, 00:02:00,VALID,918.277,VALID,0,VALID,100,VALID,-0.0509425,VALID,19.863,VALID,41,VALID,0,
2009-01-07, 00:03:00,VALID,918.27,VALID,0,VALID,100,VALID,-0.0849042,VALID,19.8273,VALID,41,VALID,0,
2009-01-07, 00:04:00,VALID,918.286,VALID,0,VALID,100,VALID,-0.101885,VALID,19.7465,VALID,41,VALID,0,
2009-01-07, 00:05:00,VALID,918.28,VALID,0,VALID,100,VALID,-0.101885,VALID,19.6591,VALID,41,VALID,0,
2009-01-07, 00:06:00,VALID,918.285,VALID,0,VALID,100,VALID,-0.0849042,VALID,19.6362,VALID,41,VALID,0,
2009-01-07, 00:07:00,VALID,918.28,VALID,0,VALID,100,VALID,-0.0849042,VALID,19.6556,VALID,41,VALID,0,
2009-01-07, 00:08:00,VALID,918.278,VALID,0,VALID,100,VALID,0,VALID,19.6928,VALID,41,VALID,0,
2009-01-07, 00:09:00,VALID,918.273,VALID,0,VALID,100,VALID,0,VALID,19.7285,VALID,61,VALID,0,
2009-01-07, 00:10:00,VALID,918.273,VALID,0,VALID,100,VALID,0.0169808,VALID,19.735,VALID,71,VALID,0,
2009-01-07, 00:11:00,VALID,918.273,VALID,0,VALID,100,VALID,0.0169808,VALID,19.7385,VALID,71,VALID,0,
2009-01-07, 00:12:00,VALID,918.273,VALID,0,VALID,100,VALID,0,VALID,19.7352,VALID,73,VALID,0,
2009-01-07, 00:13:00,VALID,918.269,VALID,0,VALID,100,VALID,0,VALID,19.712,VALID,73,VALID,0,
2009-01-07, 00:14:00,VALID,918.263,VALID,0,VALID,100,VALID,0,VALID,19.6993,VALID,82,VALID,0,
2009-01-07, 00:15:00,VALID,918.269,VALID,0,VALID,100,VALID,0,VALID,19.6704,VALID,98,VALID,0,
2009-01-07, 00:16:00,VALID,918.275,VALID,0,VALID,100,VALID,0,VALID,19.6569,VALID,99,VALID,0,
2009-01-07, 00:17:00,VALID,918.273,VALID,0,VALID,100,VALID,0.0169808,VALID,19.6676,VALID,99,VALID,0,
2009-01-07, 00:18:00,VALID,918.274,VALID,0,VALID,100,VALID,0.0169808,VALID,19.6571,VALID,99,VALID,0,
2009-01-07, 00:19:00,VALID,918.257,VALID,0,VALID,100,VALID,0,VALID,19.6571,VALID,99,VALID,0,
2009-01-07, 00:20:00,VALID,918.255,VALID,0,VALID,100,VALID,0,VALID,19.6636,VALID,101,VALID,0,
2009-01-07, 00:21:00,VALID,918.237,VALID,0,VALID,100,VALID,0.0169808,VALID,19.6639,VALID,104,VALID,0,
2009-01-07, 00:22:00,VALID,918.24,VALID,0,VALID,100,VALID,-0.0169808,VALID,19.6679,VALID,104,VALID,0,
2009-01-07, 00:23:00,VALID,918.242,VALID,0,VALID,100,VALID,-0.0509425,VALID,19.6616,VALID,105,VALID,0,
2009-01-07, 00:24:00,VALID,918.229,VALID,0,VALID,100,VALID,-0.101885,VALID,19.6846,VALID,105,VALID,0,
2009-01-07, 00:25:00,VALID,918.224,VALID,0,VALID,100,VALID,-0.101885,VALID,19.7145,VALID,106,VALID,0,
2009-01-07, 00:26:00,VALID,918.221,VALID,0,VALID,100,VALID,-0.118866,VALID,19.7592,VALID,113,VALID,0,
2009-01-07, 00:27:00,VALID,918.209,VALID,0,VALID,100,VALID,-0.101885,VALID,19.7949,VALID,119,VALID,0,
2009-01-07, 00:28:00,VALID,918.206,VALID,0,VALID,100,VALID,-0.0849042,VALID,19.8016,VALID,120,VALID,0,
2009-01-07, 00:29:00,VALID,918.214,VALID,0,VALID,100,VALID,-0.101885,VALID,19.7922,VALID,120,VALID,0,
2009-01-07, 00:30:00,VALID,918.211,VALID,0,VALID,100,VALID,-0.101885,VALID,19.7752,VALID,120,VALID,0,
2009-01-07, 00:31:00,VALID,918.208,VALID,0,VALID,100,VALID,-0.0679233,VALID,19.7757,VALID,120,VALID,0,
2009-01-07, 00:32:00,VALID,918.208,VALID,0,VALID,100,VALID,-0.0509425,VALID,19.7495,VALID,120,VALID,0,
2009-01-07, 00:33:00,VALID,918.191,VALID,0,VALID,100,VALID,-0.0509425,VALID,19.742,VALID,120,VALID,0,
2009-01-07, 00:34:00,VALID,918.179,VALID,0,VALID,100,VALID,-0.0679233,VALID,19.7555,VALID,120,VALID,0,
2009-01-07, 00:35:00,VALID,918.175,VALID,0,VALID,100,VALID,-0.0679233,VALID,19.7719,VALID,121,VALID,0,
2009-01-07, 00:36:00,VALID,918.165,VALID,0,VALID,100,VALID,-0.0849042,VALID,19.7525,VALID,121,VALID,0,
2009-01-07, 00:37:00,VALID,918.145,VALID,0,VALID,100,VALID,-0.0679233,VALID,19.7332,VALID,121,VALID,0,
2009-01-07, 00:38:00,VALID,918.128,VALID,0,VALID,100,VALID,-0.0679233,VALID,19.717,VALID,121,VALID,0,
2009-01-07, 00:39:00,VALID,918.109,VALID,0,VALID,100,VALID,-0.0679233,VALID,19.7008,VALID,121,VALID,0,
2009-01-07, 00:40:00,VALID,918.094,VALID,0,VALID,100,VALID,-0.0509425,VALID,19.6711,VALID,121,VALID,0,
2009-01-07, 00:41:00,VALID,918.085,VALID,0,VALID,100,VALID,-0.0509425,VALID,19.6716,VALID,121,VALID,0,
2009-01-07, 00:42:00,VALID,918.071,VALID,0,VALID,100,VALID,-0.101885,VALID,19.6586,VALID,121,VALID,0,
2009-01-07, 00:43:00,VALID,918.045,VALID,0,VALID,100,VALID,-0.0679233,VALID,19.6454,VALID,122,VALID,0,
2009-01-07, 00:44:00,VALID,918.04,VALID,0,VALID,100,VALID,-0.0849042,VALID,19.6164,VALID,122,VALID,0,
2009-01-07, 00:45:00,VALID,918.014,VALID,0,VALID,100,VALID,-0.0849042,VALID,19.5805,VALID,122,VALID,0,
2009-01-07, 00:46:00,VALID,917.992,VALID,0,VALID,100,VALID,-0.0679233,VALID,19.5223,VALID,122,VALID,0,
2009-01-07, 00:47:00,VALID,917.977,VALID,0,VALID,100,VALID,-0.0849042,VALID,19.4961,VALID,122,VALID,0,
2009-01-07, 00:48:00,VALID,917.951,VALID,0,VALID,100,VALID,-0.0679233,VALID,19.5121,VALID,122,VALID,0,
2009-01-07, 00:49:00,VALID,917.922,VALID,0,VALID,100,VALID,-0.0339617,VALID,19.5321,VALID,122,VALID,0,
2009-01-07, 00:50:00,VALID,917.913,VALID,0,VALID,100,VALID,-0.0509425,VALID,19.5448,VALID,122,VALID,0,
2009-01-07, 00:51:00,VALID,917.893,VALID,0,VALID,100,VALID,-0.0339617,VALID,19.5351,VALID,122,VALID,0,
2009-01-07, 00:52:00,VALID,917.879,VALID,0,VALID,100,VALID,-0.0509425,VALID,19.5121,VALID,122,VALID,0,
2009-01-07, 00:53:00,VALID,917.873,VALID,0,VALID,100,VALID,0.0169808,VALID,19.5241,VALID,122,VALID,0,
2009-01-07, 00:54:00,VALID,917.862,VALID,0,VALID,100,VALID,0,VALID,19.5371,VALID,122,VALID,0,
2009-01-07, 00:55:00,VALID,917.856,VALID,0,VALID,100,VALID,0.0339617,VALID,19.5081,VALID,122,VALID,0,
2009-01-07, 00:56:00,VALID,917.856,VALID,0,VALID,100,VALID,0,VALID,19.4719,VALID,122,VALID,0,
2009-01-07, 00:57:00,VALID,917.864,VALID,0,VALID,100,VALID,0.0339617,VALID,19.4657,VALID,121,VALID,0,
2009-01-07, 00:58:00,VALID,917.858,VALID,0,VALID,100,VALID,0,VALID,19.4038,VALID,118,VALID,0,
2009-01-07, 00:59:00,VALID,917.854,VALID,0,VALID,100,VALID,0.0169808,VALID,19.4038,VALID,108,VALID,0,
2009-01-07, 01:00:00,VALID,917.839,VALID,0,VALID,100,VALID,0.0509425,VALID,19.4073,VALID,95,VALID,0.0421875,
2009-01-07, 01:01:00,VALID,917.832,VALID,0,VALID,100,VALID,0.0509425,VALID,19.4036,VALID,94,VALID,0,
2009-01-07, 01:02:00,VALID,917.825,VALID,0,VALID,100,VALID,0.0169808,VALID,19.3976,VALID,93,VALID,0,
2009-01-07, 01:03:00,VALID,917.806,VALID,0,VALID,100,VALID,0.0339617,VALID,19.3679,VALID,90,VALID,0,
2009-01-07, 01:04:00,VALID,917.794,VALID,0,VALID,100,VALID,0.0339617,VALID,19.3522,VALID,80,VALID,0,
2009-01-07, 01:05:00,VALID,917.771,VALID,0,VALID,100,VALID,0.0679233,VALID,19.3227,VALID,80,VALID,0,
2009-01-07, 01:06:00,VALID,917.77,VALID,0,VALID,100,VALID,0.0169808,VALID,19.3157,VALID,86,VALID,0,
2009-01-07, 01:07:00,VALID,917.758,VALID,0,VALID,100,VALID,0.0339617,VALID,19.3292,VALID,97,VALID,0,
2009-01-07, 01:08:00,VALID,917.776,VALID,0,VALID,100,VALID,0.0509425,VALID,19.3225,VALID,97,VALID,0,
2009-01-07, 01:09:00,VALID,917.773,VALID,0,VALID,100,VALID,0.0679233,VALID,19.3225,VALID,97,VALID,0,
2009-01-07, 01:10:00,VALID,917.782,VALID,0,VALID,100,VALID,0.0339617,VALID,19.3192,VALID,97,VALID,0,
2009-01-07, 01:11:00,VALID,917.767,VALID,0,VALID,100,VALID,0.0339617,VALID,19.3187,VALID,97,VALID,0,
2009-01-07, 01:12:00,VALID,917.759,VALID,0,VALID,100,VALID,0.0849042,VALID,19.3479,VALID,101,VALID,0,
2009-01-07, 01:13:00,VALID,917.737,VALID,0,VALID,100,VALID,0.0849042,VALID,19.3669,VALID,110,VALID,0,
2009-01-07, 01:14:00,VALID,917.707,VALID,0,VALID,100,VALID,0.0679233,VALID,19.3574,VALID,110,VALID,0,
2009-01-07, 01:15:00,VALID,917.703,VALID,0,VALID,100,VALID,0.0849042,VALID,19.3414,VALID,110,VALID,0,
2009-01-07, 01:16:00,VALID,917.69,VALID,0,VALID,100,VALID,0.0679233,VALID,19.3055,VALID,110,VALID,0,
2009-01-07, 01:17:00,VALID,917.685,VALID,0,VALID,100,VALID,0.0849042,VALID,19.2796,VALID,111,VALID,0,
2009-01-07, 01:18:00,VALID,917.683,VALID,0,VALID,100,VALID,0.0679233,VALID,19.2706,VALID,112,VALID,0,
2009-01-07, 01:19:00,VALID,917.683,VALID,0,VALID,100,VALID,-0.0679233,VALID,19.2588,VALID,112,VALID,0,
2009-01-07, 01:20:00,VALID,917.69,VALID,0,VALID,100,VALID,-0.0339617,VALID,19.2483,VALID,114,VALID,0,
2009-01-07, 01:21:00,VALID,917.689,VALID,0,VALID,100,VALID,-0.0849042,VALID,19.262,VALID,122,VALID,0,
2009-01-07, 01:22:00,VALID,917.699,VALID,0,VALID,100,VALID,-0.0339617,VALID,19.2458,VALID,125,VALID,0,
2009-01-07, 01:23:00,VALID,917.688,VALID,0,VALID,100,VALID,-0.0679233,VALID,19.2423,VALID,130,VALID,0,
2009-01-07, 01:24:00,VALID,917.681,VALID,0,VALID,100,VALID,-0.0339617,VALID,19.2453,VALID,132,VALID,0,
2009-01-07, 01:25:00,VALID,917.676,VALID,0,VALID,100,VALID,-0.0679233,VALID,19.2423,VALID,132,VALID,0,
2009-01-07, 01:26:00,VALID,917.661,VALID,0,VALID,100,VALID,-0.0509425,VALID,19.2358,VALID,133,VALID,0,
2009-01-07, 01:27:00,VALID,917.656,VALID,0,VALID,100,VALID,-0.0509425,VALID,19.2453,VALID,136,VALID,0,
2009-01-07, 01:28:00,VALID,917.652,VALID,0,VALID,100,VALID,-0.0509425,VALID,19.2648,VALID,146,VALID,0,
2009-01-07, 01:29:00,VALID,917.639,VALID,0,VALID,100,VALID,-0.0509425,VALID,19.285,VALID,147,VALID,0.0497159,
2009-01-07, 01:30:00,VALID,917.631,VALID,0,VALID,100,VALID,-0.0509425,VALID,19.2912,VALID,147,VALID,0,
2009-01-07, 01:31:00,VALID,917.633,VALID,0,VALID,100,VALID,-0.0679233,VALID,19.2975,VALID,148,VALID,0.00130208,
2009-01-07, 01:32:00,VALID,917.619,VALID,0,VALID,100,VALID,-0.101885,VALID,19.2972,VALID,153,VALID,0.0809152,
2009-01-07, 01:33:00,VALID,917.613,VALID,0,VALID,100,VALID,-0.0509425,VALID,19.3135,VALID,154,VALID,0,
2009-01-07, 01:34:00,VALID,917.61,VALID,0,VALID,100,VALID,-0.0509425,VALID,19.3299,VALID,154,VALID,0,
2009-01-07, 01:35:00,VALID,917.605,VALID,0,VALID,100,VALID,-0.0509425,VALID,19.3234,VALID,154,VALID,0,
2009-01-07, 01:36:00,VALID,917.594,VALID,0,VALID,100,VALID,-0.0679233,VALID,19.3299,VALID,154,VALID,0,
2009-01-07, 01:37:00,VALID,917.572,VALID,0,VALID,100,VALID,-0.0339617,VALID,19.3167,VALID,150,VALID,0,
2009-01-07, 01:38:00,VALID,917.559,VALID,0,VALID,100,VALID,-0.0679233,VALID,19.3204,VALID,139,VALID,0,
2009-01-07, 01:39:00,VALID,917.552,VALID,0,VALID,100,VALID,-0.0509425,VALID,19.3204,VALID,138,VALID,0,
2009-01-07, 01:40:00,VALID,917.528,VALID,0,VALID,100,VALID,-0.0509425,VALID,19.317,VALID,137,VALID,0,
2009-01-07, 01:41:00,VALID,917.518,VALID,0,VALID,100,VALID,-0.0679233,VALID,19.317,VALID,126,VALID,0,
2009-01-07, 01:42:00,VALID,917.497,VALID,0,VALID,100,VALID,-0.0849042,VALID,19.3299,VALID,125,VALID,0,
2009-01-07, 01:43:00,VALID,917.493,VALID,0,VALID,100,VALID,-0.0679233,VALID,19.3526,VALID,125,VALID,0,
2009-01-07, 01:44:00,VALID,917.491,VALID,0,VALID,100,VALID,-0.0679233,VALID,19.3594,VALID,126,VALID,0,
2009-01-07, 01:45:00,VALID,917.478,VALID,0,VALID,100,VALID,-0.0339617,VALID,19.3462,VALID,126,VALID,0,
2009-01-07, 01:46:00,VALID,917.472,VALID,0,VALID,100,VALID,-0.0509425,VALID,19.3434,VALID,126,VALID,0,
2009-01-07, 01:47:00,VALID,917.469,VALID,0,VALID,100,VALID,-0.0509425,VALID,19.3499,VALID,127,VALID,0,
2009-01-07, 01:48:00,VALID,917.469,VALID,0,VALID,100,VALID,-0.0679233,VALID,19.3239,VALID,127,VALID,0,
2009-01-07, 01:49:00,VALID,917.474,VALID,0,VALID,100,VALID,-0.0509425,VALID,19.3137,VALID,127,VALID,0,
2009-01-07, 01:50:00,VALID,917.485,VALID,0,VALID,100,VALID,-0.0339617,VALID,19.32,VALID,127,VALID,0,
2009-01-07, 01:51:00,VALID,917.475,VALID,0,VALID,100,VALID,-0.0509425,VALID,19.3337,VALID,128,VALID,0,
2009-01-07, 01:52:00,VALID,917.464,VALID,0,VALID,100,VALID,-0.0679233,VALID,19.3342,VALID,136,VALID,0,
2009-01-07, 01:53:00,VALID,917.466,VALID,0,VALID,100,VALID,-0.0509425,VALID,19.3112,VALID,136,VALID,0,
2009-01-07, 01:54:00,VALID,917.455,VALID,0,VALID,100,VALID,-0.0849042,VALID,19.2952,VALID,136,VALID,0,
2009-01-07, 01:55:00,VALID,917.447,VALID,0,VALID,100,VALID,-0.101885,VALID,19.2885,VALID,136,VALID,0,
2009-01-07, 01:56:00,VALID,917.436,VALID,0,VALID,100,VALID,-0.101885,VALID,19.2952,VALID,136,VALID,0,
2009-01-07, 01:57:00,VALID,917.434,VALID,0,VALID,100,VALID,-0.0849042,VALID,19.279,VALID,136,VALID,0,
2009-01-07, 01:58:00,VALID,917.416,VALID,0,VALID,100,VALID,-0.0849042,VALID,19.2623,VALID,135,VALID,0,
2009-01-07, 01:59:00,VALID,917.398,VALID,0,VALID,100,VALID,-0.0339617,VALID,19.259,VALID,134,VALID,0.0727431,
2009-01-07, 02:00:00,VALID,917.377,VALID,0,VALID,100,VALID,-0.0339617,VALID,19.2296,VALID,134,VALID,0,
2009-01-07, 02:01:00,VALID,917.371,VALID,0,VALID,100,VALID,-0.0849042,VALID,19.2493,VALID,133,VALID,0,
2009-01-07, 02:02:00,VALID,917.351,VALID,0,VALID,100,VALID,-0.0509425,VALID,19.2528,VALID,132,VALID,0,
2009-01-07, 02:03:00,VALID,917.332,VALID,0,VALID,100,VALID,-0.0339617,VALID,19.2488,VALID,130,VALID,0,
2009-01-07, 02:04:00,VALID,917.31,VALID,0,VALID,100,VALID,-0.0339617,VALID,19.2521,VALID,129,VALID,0,
2009-01-07, 02:05:00,VALID,917.288,VALID,0,VALID,100,VALID,-0.0339617,VALID,19.2521,VALID,127,VALID,0,
2009-01-07, 02:06:00,VALID,917.278,VALID,0,VALID,100,VALID,-0.0679233,VALID,19.2526,VALID,127,VALID,0,
2009-01-07, 02:07:00,VALID,917.259,VALID,0,VALID,100,VALID,-0.0339617,VALID,19.2588,VALID,129,VALID,0,
2009-01-07, 02:08:00,VALID,917.235,VALID,0,VALID,100,VALID,0,VALID,19.2553,VALID,137,VALID,0,
2009-01-07, 02:09:00,VALID,917.219,VALID,0,VALID,100,VALID,-0.0849042,VALID,19.272,VALID,153,VALID,0,
2009-01-07, 02:10:00,VALID,917.201,VALID,0,VALID,100,VALID,-0.0509425,VALID,19.281,VALID,148,VALID,0,
2009-01-07, 02:11:00,VALID,917.19,VALID,0,VALID,100,VALID,-0.0679233,VALID,19.308,VALID,139,VALID,0,
2009-01-07, 02:12:00,VALID,917.179,VALID,0,VALID,100,VALID,-0.0509425,VALID,19.2945,VALID,139,VALID,0,
2009-01-07, 02:13:00,VALID,917.158,VALID,0,VALID,100,VALID,-0.0169808,VALID,19.2783,VALID,139,VALID,0,
2009-01-07, 02:14:00,VALID,917.146,VALID,0,VALID,100,VALID,-0.0509425,VALID,19.2588,VALID,139,VALID,0,
2009-01-07, 02:15:00,VALID,917.147,VALID,0,VALID,100,VALID,-0.0339617,VALID,19.2548,VALID,139,VALID,0,
2009-01-07, 02:16:00,VALID,917.129,VALID,0,VALID,100,VALID,-0.0169808,VALID,19.2586,VALID,139,VALID,0,
2009-01-07, 02:17:00,VALID,917.117,VALID,0,VALID,100,VALID,-0.0339617,VALID,19.2623,VALID,139,VALID,0,
2009-01-07, 02:18:00,VALID,917.113,VALID,0,VALID,100,VALID,-0.0679233,VALID,19.262,VALID,137,VALID,0,
2009-01-07, 02:19:00,VALID,917.093,VALID,0,VALID,100,VALID,-0.0679233,VALID,19.2518,VALID,137,VALID,0,
2009-01-07, 02:20:00,VALID,917.08,VALID,0,VALID,100,VALID,-0.0339617,VALID,19.2588,VALID,136,VALID,0,
2009-01-07, 02:21:00,VALID,917.066,VALID,0,VALID,100,VALID,-0.0339617,VALID,19.2486,VALID,135,VALID,0,
2009-01-07, 02:22:00,VALID,917.052,VALID,0,VALID,100,VALID,-0.0169808,VALID,19.2354,VALID,133,VALID,0,
2009-01-07, 02:23:00,VALID,917.035,VALID,0,VALID,100,VALID,0,VALID,19.2164,VALID,129,VALID,0,
2009-01-07, 02:24:00,VALID,917.027,VALID,0,VALID,100,VALID,-0.0339617,VALID,19.1835,VALID,117,VALID,0,
2009-01-07, 02:25:00,VALID,917.019,VALID,0,VALID,100,VALID,-0.0339617,VALID,19.1675,VALID,101,VALID,0,
2009-01-07, 02:26:00,VALID,917.014,VALID,0,VALID,100,VALID,-0.0679233,VALID,19.1675,VALID,102,VALID,0,
2009-01-07, 02:27:00,VALID,916.997,VALID,0,VALID,100,VALID,-0.0509425,VALID,19.1478,VALID,102,VALID,0,
2009-01-07, 02:28:00,VALID,916.984,VALID,0,VALID,100,VALID,0,VALID,19.132,VALID,107,VALID,0,
2009-01-07, 02:29:00,VALID,916.957,VALID,0,VALID,100,VALID,-0.0509425,VALID,19.1293,VALID,110,VALID,0,
2009-01-07, 02:30:00,VALID,916.938,VALID,0,VALID,100,VALID,-0.0169808,VALID,19.0894,VALID,112,VALID,0,
2009-01-07, 02:31:00,VALID,916.915,VALID,0,VALID,100,VALID,-0.0509425,VALID,19.0796,VALID,112,VALID,0,
2009-01-07, 02:32:00,VALID,916.896,VALID,0,VALID,100,VALID,-0.0169808,VALID,19.0736,VALID,116,VALID,0,
2009-01-07, 02:33:00,VALID,916.885,VALID,0,VALID,100,VALID,-0.0339617,VALID,19.0505,VALID,118,VALID,0,
2009-01-07, 02:34:00,VALID,916.87,VALID,0,VALID,100,VALID,-0.0169808,VALID,19.0507,VALID,126,VALID,0,
2009-01-07, 02:35:00,VALID,916.856,VALID,0,VALID,100,VALID,0,VALID,19.0472,VALID,127,VALID,0,
2009-01-07, 02:36:00,VALID,916.859,VALID,0,VALID,100,VALID,0,VALID,19.0407,VALID,127,VALID,0,
2009-01-07, 02:37:00,VALID,916.854,VALID,0,VALID,100,VALID,-0.0169808,VALID,19.041,VALID,127,VALID,0,
2009-01-07, 02:38:00,VALID,916.851,VALID,0,VALID,100,VALID,-0.0339617,VALID,19.0245,VALID,131,VALID,0,
2009-01-07, 02:39:00,VALID,916.859,VALID,0,VALID,100,VALID,0,VALID,19.0307,VALID,144,VALID,0,
2009-01-07, 02:40:00,VALID,916.861,VALID,0,VALID,100,VALID,-0.0509425,VALID,19.0245,VALID,141,VALID,0,
2009-01-07, 02:41:00,VALID,916.855,VALID,0,VALID,100,VALID,0,VALID,19.0118,VALID,134,VALID,0,
2009-01-07, 02:42:00,VALID,916.848,VALID,0,VALID,100,VALID,0,VALID,19.005,VALID,127,VALID,0,
2009-01-07, 02:43:00,VALID,916.833,VALID,0,VALID,100,VALID,-0.0509425,VALID,18.9988,VALID,125,VALID,0,
2009-01-07, 02:44:00,VALID,916.817,VALID,0,VALID,100,VALID,-0.0169808,VALID,18.9886,VALID,120,VALID,0,
2009-01-07, 02:45:00,VALID,916.788,VALID,0,VALID,100,VALID,-0.0509425,VALID,18.9928,VALID,126,VALID,0,
2009-01-07, 02:46:00,VALID,916.763,VALID,0,VALID,100,VALID,-0.0339617,VALID,18.9895,VALID,128,VALID,0,
2009-01-07, 02:47:00,VALID,916.749,VALID,0,VALID,100,VALID,-0.0339617,VALID,18.9791,VALID,128,VALID,0,
2009-01-07, 02:48:00,VALID,916.737,VALID,0,VALID,100,VALID,-0.0339617,VALID,18.9501,VALID,128,VALID,0,
2009-01-07, 02:49:00,VALID,916.73,VALID,0,VALID,100,VALID,-0.0509425,VALID,18.9601,VALID,129,VALID,0.0751488,
2009-01-07, 02:50:00,VALID,916.731,VALID,0,VALID,100,VALID,-0.0509425,VALID,18.999,VALID,130,VALID,0,
2009-01-07, 02:51:00,VALID,916.725,VALID,0,VALID,100,VALID,-0.0339617,VALID,18.9988,VALID,132,VALID,0,
2009-01-07, 02:52:00,VALID,916.72,VALID,0,VALID,100,VALID,-0.0679233,VALID,18.9891,VALID,141,VALID,0,
2009-01-07, 02:53:00,VALID,916.706,VALID,0,VALID,100,VALID,-0.0339617,VALID,18.9501,VALID,141,VALID,0,
2009-01-07, 02:54:00,VALID,916.687,VALID,0,VALID,100,VALID,-0.0679233,VALID,18.9376,VALID,137,VALID,0,
2009-01-07, 02:55:00,VALID,916.681,VALID,0,VALID,100,VALID,-0.0679233,VALID,18.9207,VALID,137,VALID,0,
2009-01-07, 02:56:00,VALID,916.662,VALID,0,VALID,100,VALID,-0.0509425,VALID,18.9277,VALID,141,VALID,0,
2009-01-07, 02:57:00,VALID,916.642,VALID,0,VALID,100,VALID,-0.0339617,VALID,18.9239,VALID,142,VALID,0,
2009-01-07, 02:58:00,VALID,916.619,VALID,0,VALID,100,VALID,0,VALID,18.9272,VALID,141,VALID,0,
2009-01-07, 02:59:00,VALID,916.596,VALID,0,VALID,100,VALID,-0.0339617,VALID,18.9434,VALID,139,VALID,0,
2009-01-07, 03:00:00,VALID,916.595,VALID,0,VALID,100,VALID,-0.101885,VALID,18.9506,VALID,139,VALID,0,
2009-01-07, 03:01:00,VALID,916.582,VALID,0,VALID,100,VALID,-0.0849042,VALID,18.9698,VALID,137,VALID,0,
2009-01-07, 03:02:00,VALID,916.589,VALID,0,VALID,100,VALID,-0.0849042,VALID,18.9603,VALID,140,VALID,0,
2009-01-07, 03:03:00,VALID,916.605,VALID,0,VALID,100,VALID,-0.0509425,VALID,18.9436,VALID,140,VALID,0,
2009-01-07, 03:04:00,VALID,916.608,VALID,0,VALID,100,VALID,-0.0849042,VALID,18.9504,VALID,139,VALID,0,
2009-01-07, 03:05:00,VALID,916.606,VALID,0,VALID,100,VALID,-0.0509425,VALID,18.9372,VALID,140,VALID,0,
2009-01-07, 03:06:00,VALID,916.613,VALID,0,VALID,100,VALID,-0.0339617,VALID,18.9439,VALID,141,VALID,0,
2009-01-07, 03:07:00,VALID,916.614,VALID,0,VALID,100,VALID,-0.0169808,VALID,18.9339,VALID,142,VALID,0,
2009-01-07, 03:08:00,VALID,916.589,VALID,0,VALID,100,VALID,-0.0169808,VALID,18.9242,VALID,147,VALID,0,
2009-01-07, 03:09:00,VALID,916.604,VALID,0,VALID,100,VALID,-0.0509425,VALID,18.9147,VALID,150,VALID,0,
2009-01-07, 03:10:00,VALID,916.608,VALID,0,VALID,100,VALID,-0.0679233,VALID,18.9149,VALID,150,VALID,0,
2009-01-07, 03:11:00,VALID,916.609,VALID,0,VALID,100,VALID,-0.0339617,VALID,18.908,VALID,153,VALID,0,
2009-01-07, 03:12:00,VALID,916.601,VALID,0,VALID,100,VALID,-0.0679233,VALID,18.8947,VALID,159,VALID,0,
2009-01-07, 03:13:00,VALID,916.613,VALID,0,VALID,100,VALID,-0.0169808,VALID,18.898,VALID,155,VALID,0,
2009-01-07, 03:14:00,VALID,916.608,VALID,0,VALID,100,VALID,-0.0339617,VALID,18.8915,VALID,158,VALID,0.0341082,
2009-01-07, 03:15:00,VALID,916.607,VALID,0,VALID,100,VALID,0,VALID,18.8913,VALID,155,VALID,0,
2009-01-07, 03:16:00,VALID,916.609,VALID,0,VALID,100,VALID,0,VALID,18.9042,VALID,140,VALID,0.0588796,
2009-01-07, 03:17:00,VALID,916.596,VALID,0,VALID,100,VALID,-0.0339617,VALID,18.898,VALID,132,VALID,0,
2009-01-07, 03:18:00,VALID,916.594,VALID,0,VALID,100,VALID,-0.0339617,VALID,18.9015,VALID,138,VALID,0,
2009-01-07, 03:19:00,VALID,916.599,VALID,0,VALID,100,VALID,-0.0339617,VALID,18.8883,VALID,140,VALID,0,
2009-01-07, 03:20:00,VALID,916.578,VALID,0,VALID,100,VALID,0,VALID,18.8755,VALID,127,VALID,0,
2009-01-07, 03:21:00,VALID,916.57,VALID,0,VALID,100,VALID,-0.0679233,VALID,18.879,VALID,126,VALID,0,
2009-01-07, 03:22:00,VALID,916.561,VALID,0,VALID,100,VALID,-0.0339617,VALID,18.8985,VALID,124,VALID,0,
2009-01-07, 03:23:00,VALID,916.565,VALID,0,VALID,100,VALID,-0.0339617,VALID,18.892,VALID,121,VALID,0,
2009-01-07, 03:24:00,VALID,916.555,VALID,0,VALID,100,VALID,-0.0509425,VALID,18.866,VALID,122,VALID,0,
2009-01-07, 03:25:00,VALID,916.556,VALID,0,VALID,100,VALID,-0.0849042,VALID,18.8398,VALID,124,VALID,0,
2009-01-07, 03:26:00,VALID,916.553,VALID,0,VALID,100,VALID,-0.0679233,VALID,18.8336,VALID,131,VALID,0,
2009-01-07, 03:27:00,VALID,916.538,VALID,0,VALID,100,VALID,-0.0169808,VALID,18.8334,VALID,133,VALID,0,
2009-01-07, 03:28:00,VALID,916.536,VALID,0,VALID,100,VALID,-0.0849042,VALID,18.8201,VALID,127,VALID,0,
2009-01-07, 03:29:00,VALID,916.55,VALID,0,VALID,100,VALID,-0.0339617,VALID,18.8004,VALID,125,VALID,0,
2009-01-07, 03:30:00,VALID,916.547,VALID,0,VALID,100,VALID,-0.0509425,VALID,18.8109,VALID,125,VALID,0,
2009-01-07, 03:31:00,VALID,916.544,VALID,0,VALID,100,VALID,-0.0339617,VALID,18.7974,VALID,124,VALID,0,
2009-01-07, 03:32:00,VALID,916.547,VALID,0,VALID,100,VALID,-0.0169808,VALID,18.7942,VALID,120,VALID,0,
2009-01-07, 03:33:00,VALID,916.542,VALID,0,VALID,100,VALID,-0.0169808,VALID,18.7847,VALID,118,VALID,0,
2009-01-07, 03:34:00,VALID,916.547,VALID,0,VALID,100,VALID,-0.0339617,VALID,18.778,VALID,118,VALID,0,
2009-01-07, 03:35:00,VALID,916.532,VALID,0,VALID,100,VALID,-0.0339617,VALID,18.7583,VALID,120,VALID,0,
2009-01-07, 03:36:00,VALID,916.531,VALID,0,VALID,100,VALID,0,VALID,18.7194,VALID,126,VALID,0,
2009-01-07, 03:37:00,VALID,916.531,VALID,0,VALID,100,VALID,-0.0509425,VALID,18.7133,VALID,133,VALID,0,
2009-01-07, 03:38:00,VALID,916.531,VALID,0,VALID,100,VALID,-0.0339617,VALID,18.7001,VALID,133,VALID,0,
2009-01-07, 03:39:00,VALID,916.529,VALID,0,VALID,100,VALID,-0.0169808,VALID,18.7131,VALID,139,VALID,0,
2009-01-07, 03:40:00,VALID,916.535,VALID,0,VALID,100,VALID,-0.0509425,VALID,18.736,VALID,143,VALID,0,
2009-01-07, 03:41:00,VALID,916.552,VALID,0,VALID,100,VALID,-0.0849042,VALID,18.7034,VALID,148,VALID,0,
2009-01-07, 03:42:00,VALID,916.552,VALID,0,VALID,100,VALID,-0.0679233,VALID,18.6809,VALID,145,VALID,0,
2009-01-07, 03:43:00,VALID,916.57,VALID,0,VALID,100,VALID,-0.0679233,VALID,18.6522,VALID,151,VALID,0,
2009-01-07, 03:44:00,VALID,916.569,VALID,0,VALID,100,VALID,-0.0509425,VALID,18.6255,VALID,150,VALID,0.0458333,
2009-01-07, 03:45:00,VALID,916.57,VALID,0,VALID,100,VALID,-0.0509425,VALID,18.629,VALID,140,VALID,0.0597747,
2009-01-07, 03:46:00,VALID,916.561,VALID,0,VALID,100,VALID,-0.0849042,VALID,18.6197,VALID,136,VALID,0.00710227,
2009-01-07, 03:47:00,VALID,916.572,VALID,0,VALID,100,VALID,-0.0849042,VALID,18.6005,VALID,135,VALID,0.000710227,
2009-01-07, 03:48:00,VALID,916.579,VALID,0,VALID,100,VALID,-0.0679233,VALID,18.5933,VALID,116,VALID,0.0314405,
2009-01-07, 03:49:00,VALID,916.563,VALID,0,VALID,100,VALID,-0.0339617,VALID,18.5739,VALID,109,VALID,0.00236192,
2009-01-07, 03:50:00,VALID,916.556,VALID,0,VALID,100,VALID,-0.0339617,VALID,18.5898,VALID,113,VALID,0.0012429,